Wind_Speed
62 62 61 60 60 61 61 60 60 61 62 62 61 61 61 61 60 60 60 59 58 58 58 57 57 56 55 53 52 51 51 50 50 49 48 47 47 47 47 47 48 49 50 50 51 51 51 51 52 52 53 53 54 54 54 54 53 52 51 50 50 50 51 52 53 54 54 55 54 54 53 53 53 52 52 51 51 51 52 53 54 55 56 56 56 55
63 63 62 62 61 61 62 61 61 61 62 63 63 63 63 63 62 61 60 59 59 58 57 57 56 56 55 54 52 51 50 50 49 49 48 47 46 46 45 45 46 46 48 49 50 50 51 51 51 51 52 52 53 53 53 53 53 53 51 49 48 48 48 50 51 52 54 55 55 54 54 54 54 53 53 52 52 51 52 53 54 55 55 56 56 56
63 63 64 63 63 62 63 63 63 62 63 63 64 64 64 64 64 63 62 61 60 59 58 57 56 56 55 54 53 51 50 49 49 48 48 47 47 46 45 45 44 44 45 47 48 49 50 51 51 51 51 52 52 52 52 52 52 52 52 51 50 49 48 49 50 52 53 54 55 55 55 55 55 55 54 53 53 52 52 52 53 54 55 56 56 56
63 63 64 64 64 63 63 64 63 63 63 63 64 64 64 65 65 65 64 63 61 60 59 57 56 55 55 54 53 51 49 48 47 47 47 47 46 46 45 45 44 44 44 45 46 48 49 50 51 51 51 51 52 51 51 51 51 52 52 52 52 52 51 50 50 51 53 54 55 55 56 56 56 56 55 55 54 53 53 53 53 54 55 55 56 56
63 63 63 63 63 63 63 63 63 63 62 63 63 63 63 64 64 65 64 64 63 61 60 57 55 53 52 52 51 50 48 47 46 45 45 45 45 45 45 45 45 44 44 44 44 45 47 48 49 51 51 52 52 51 51 51 51 51 52 52 52 53 53 51 50 51 52 54 55 55 56 56 56 56 56 56 55 54 54 53 53 54 54 55 55 55
63 62 62 62 62 62 63 63 62 62 62 63 63 63 63 63 63 63 63 63 63 62 60 58 55 53 52 52 52 51 49 47 46 45 44 44 44 44 44 44 44 44 44 43 43 44 45 46 47 49 50 51 52 52 51 51 51 51 51 51 52 53 53 52 51 50 51 53 54 55 56 56 56 56 56 56 56 56 55 54 53 53 53 53 53 53
63 63 62 62 62 62 62 62 62 61 61 61 62 62 62 62 62 62 62 62 62 61 60 59 57 56 55 54 54 53 52 49 47 46 44 43 43 43 43 43 43 43 42 42 41 41 42 43 45 47 48 50 50 51 51 51 51 51 51 51 51 52 52 52 51 51 51 52 54 55 55 56 57 57 57 57 57 56 55 54 53 52 52 51 50 51
63 63 62 62 62 62 62 62 61 60 59 59 60 60 61 62 62 62 61 60 60 59 59 58 58 57 56 55 54 53 52 49 47 46 45 44 43 42 42 42 41 41 40 39 38 38 39 40 41 43 45 47 48 49 50 50 50 50 50 50 50 50 51 51 51 51 51 51 53 54 54 55 56 57 57 57 57 56 56 54 53 52 51 50 49 49
61 61 61 61 61 61 61 62 61 60 59 58 58 58 59 60 61 62 61 60 59 58 57 56 56 55 55 54 53 52 50 48 46 46 45 44 43 42 42 42 42 41 40 39 37 36 36 37 38 40 42 44 45 46 47 48 48 49 49 49 49 49 49 49 50 50 50 51 52 53 54 54 55 56 57 57 57 56 56 54 53 52 51 49 49 49
60 60 60 59 59 59 59 60 60 60 59 57 57 56 56 57 58 59 59 59 59 57 56 54 54 54 54 54 52 51 50 49 48 47 47 46 45 44 43 43 43 43 42 40 39 38 36 36 36 37 38 40 42 43 45 46 46 47 47 47 47 47 47 48 48 49 49 49 50 51 52 53 54 55 57 57 57 56 55 55 54 52 51 50 50 51
61 59 58 58 57 57 57 58 58 58 57 56 56 55 55 54 54 54 55 56 57 56 55 53 53 52 53 54 53 52 51 50 50 49 49 48 47 46 45 44 44 43 43 42 41 40 39 37 37 37 37 38 39 41 42 43 44 45 45 45 45 45 45 46 46 47 47 47 48 49 50 52 52 54 56 57 57 57 56 54 53 52 51 51 52 53
61 60 58 57 57 56 56 57 57 57 56 55 54 54 53 53 52 51 51 53 54 55 54 54 53 52 52 52 52 52 52 51 50 50 50 49 47 46 45 44 43 42 41 41 41 40 40 39 39 38 38 38 38 39 40 42 43 43 44 44 44 44 44 44 45 46 46 46 46 47 49 51 51 53 54 56 57 58 57 55 53 52 52 54 55 55
62 60 59 58 57 56 56 56 56 56 56 54 53 52 52 51 51 50 50 51 52 53 53 53 53 53 52 51 50 50 49 49 49 49 49 49 48 47 45 44 43 41 40 39 39 39 39 39 40 40 40 39 38 38 39 40 41 42 42 43 43 43 43 43 44 44 45 45 45 46 48 50 51 51 52 54 56 58 57 55 53 53 54 56 58 58
62 61 60 59 58 57 56 56 56 56 55 54 52 51 51 50 49 49 49 50 51 51 51 51 51 52 51 50 48 47 46 46 47 47 48 48 47 46 45 44 43 41 40 39 39 38 38 38 39 40 40 39 38 38 38 39 40 41 41 42 42 42 42 42 43 43 44 44 44 46 47 49 50 51 51 52 54 55 56 55 54 53 55 57 59 59
62 61 61 60 59 58 57 56 55 55 54 53 51 50 49 49 48 48 48 49 49 50 49 50 50 51 50 48 46 44 43 44 45 45 46 46 46 45 44 44 43 43 41 40 39 38 36 36 37 38 38 38 37 37 37 37 38 40 40 41 41 41 41 41 42 42 43 43 44 45 47 49 50 50 50 51 51 52 52 53 53 53 54 56 58 59
60 60 59 59 59 58 56 55 54 53 52 51 50 49 48 47 47 47 47 47 48 48 48 49 50 50 50 49 46 43 42 42 43 43 43 44 44 44 43 43 43 43 42 42 40 38 36 35 35 35 36 35 35 35 36 36 37 39 40 40 40 40 40 41 41 42 42 42 43 45 47 49 50 50 50 50 49 49 50 51 52 52 52 54 56 58
57 56 56 56 56 55 54 53 51 50 49 48 48 47 47 46 46 46 46 46 47 47 47 48 49 50 50 49 47 44 42 40 40 41 42 43 43 43 42 42 42 42 42 42 40 38 36 35 34 34 34 34 34 34 35 36 37 38 39 40 40 40 40 40 40 41 41 42 42 44 46 47 48 49 49 49 48 48 49 51 52 51 50 51 54 57
52 52 51 51 51 51 50 49 48 47 46 46 46 46 46 46 46 46 45 45 46 46 47 47 48 48 49 48 47 44 42 41 42 43 43 43 43 42 42 42 42 42 42 41 40 38 36 35 34 33 33 33 33 34 35 36 37 38 39 40 40 40 40 40 39 39 40 40 41 42 44 45 46 47 47 48 48 49 50 52 52 51 49 49 52 55
48 47 47 46 46 46 46 45 44 44 44 44 44 44 45 45 45 45 45 45 46 46 46 47 47 47 47 47 46 44 42 42 43 43 43 43 42 42 41 41 42 42 42 41 39 37 35 35 34 34 34 34 34 34 35 36 37 38 39 40 40 40 40 39 39 39 39 40 40 41 41 43 43 44 45 46 47 49 50 51 51 49 47 47 49 52
44 44 43 42 42 43 43 42 42 41 42 42 43 43 44 45 45 45 45 45 46 46 46 46 47 47 47 47 45 43 41 42 43 44 44 43 43 42 40 40 41 42 42 40 38 36 35 34 34 34 34 34 34 35 35 36 37 38 39 40 40 41 41 40 40 39 39 40 40 40 41 42 42 42 43 44 46 47 48 47 47 46 45 45 46 48
41 41 40 39 39 40 40 41 40 40 40 40 42 43 44 45 45 45 45 45 44 44 45 46 47 47 46 46 45 43 41 42 43 44 44 44 43 42 40 40 41 42 41 39 37 35 34 34 34 34 34 34 35 35 36 36 37 38 39 40 41 41 41 41 41 41 41 41 41 40 41 42 42 41 41 42 42 43 43 43 43 43 43 44 45 46
39 39 38 37 37 38 39 39 39 39 39 39 40 42 43 43 44 44 44 44 44 44 45 46 46 46 46 46 45 43 41 42 43 44 44 45 44 41 39 39 40 41 41 39 37 35 35 34 34 34 34 34 35 35 36 36 36 37 38 39 40 41 41 41 41 41 41 40 40 39 40 41 41 40 40 39 39 39 39 39 40 41 42 43 44 45
36 36 36 35 36 36 37 38 38 38 38 38 39 39 41 42 43 44 44 45 45 45 45 46 46 46 46 45 44 43 41 41 42 43 44 45 44 41 39 39 40 41 40 38 37 36 35 35 34 34 34 35 35 35 36 35 35 36 37 38 39 40 40 40 41 41 40 39 37 36 36 37 37 37 37 36 36 37 37 38 39 40 41 42 42 43
33 34 34 34 35 35 36 36 37 38 38 38 39 40 41 42 42 43 44 44 44 45 45 45 46 46 45 45 44 43 41 40 41 42 42 43 43 42 40 40 40 40 39 38 37 37 36 35 34 34 34 35 35 36 36 35 35 35 36 37 38 39 39 40 40 40 38 36 34 33 32 31 31 31 31 32 33 34 35 36 37 38 39 40 40 41
32 33 33 34 35 35 35 36 37 38 38 39 39 40 40 41 41 42 42 42 43 43 44 44 45 45 46 45 44 43 41 39 39 40 40 42 43 43 40 39 40 40 39 38 38 38 37 36 35 34 35 35 36 36 36 36 35 35 36 36 37 38 39 39 38 37 35 33 32 30 29 27 26 26 26 28 29 30 32 34 35 36 37 38 39 40
31 32 33 34 34 35 35 36 36 36 37 37 38 39 39 40 41 41 41 41 41 42 43 44 45 45 46 45 44 43 41 40 39 39 40 43 44 43 40 39 40 41 40 39 39 38 37 36 35 34 35 35 36 36 36 36 35 35 35 36 37 37 38 37 36 34 33 32 31 30 28 27 25 24 24 25 26 27 29 31 33 34 36 38 39 40
31 32 32 33 34 34 35 35 35 35 35 35 36 37 38 39 40 41 41 41 41 41 42 43 45 46 46 45 44 43 41 41 41 41 42 44 45 44 41 40 40 41 41 40 39 39 38 36 35 35 35 35 36 36 36 35 35 35 36 36 37 37 36 35 33 32 31 30 30 29 29 28 26 25 25 25 25 26 28 29 31 33 36 39 41 43
31 32 33 33 34 34 34 34 34 34 33 34 34 35 37 39 40 41 41 41 40 41 42 43 45 46 46 46 45 43 42 41 41 41 42 44 45 44 42 41 41 41 41 41 40 39 38 37 36 35 35 35 35 35 35 35 35 35 36 37 37 37 35 34 32 31 31 30 30 29 29 28 28 27 26 26 27 27 28 29 31 33 37 40 43 46
31 32 33 33 33 34 33 33 33 32 32 33 33 35 36 38 39 40 41 40 41 41 42 43 44 44 45 45 45 44 42 41 40 41 42 43 44 43 42 42 41 41 41 41 40 39 38 37 36 35 34 33 33 33 34 34 35 36 37 37 37 36 35 34 33 32 31 30 30 29 29 29 29 28 28 28 28 28 29 30 32 34 37 41 44 48
31 32 32 32 32 33 33 32 32 32 32 32 33 35 36 37 39 39 40 40 40 41 42 42 43 43 43 44 44 44 42 40 40 40 42 43 43 43 42 42 41 41 41 41 41 40 38 37 35 34 33 32 32 32 33 34 35 36 37 37 37 36 35 34 33 32 31 30 29 29 29 29 29 29 29 29 29 29 29 30 32 34 37 41 45 49
33 33 33 32 32 32 32 32 32 31 32 32 33 35 36 37 38 38 39 39 40 40 41 41 41 41 42 43 44 44 43 40 39 40 41 42 43 43 42 42 41 40 40 40 40 40 39 37 35 33 32 31 31 32 33 34 36 37 37 37 36 35 35 34 33 31 30 29 28 28 29 29 30 30 30 30 29 29 29 30 32 34 38 42 46 49
34 33 33 33 32 32 32 32 32 32 32 33 34 35 35 36 37 37 38 39 39 39 39 40 40 40 40 41 43 43 43 41 39 39 41 42 42 42 42 41 41 40 39 39 39 39 38 37 35 33 32 31 31 32 33 35 36 37 37 35 34 33 33 32 31 30 29 28 28 28 28 29 29 30 30 29 28 28 29 31 33 36 40 44 47 48
33 33 33 32 32 32 32 32 32 32 33 33 34 35 35 35 36 37 37 38 38 38 38 38 38 39 39 40 41 42 42 41 39 39 40 41 41 41 41 41 40 40 39 38 38 37 37 36 34 33 32 32 32 33 34 35 36 36 36 34 32 30 30 29 28 28 28 27 27 28 28 29 29 29 29 28 28 29 31 34 36 38 41 44 45 45
33 32 32 32 32 32 31 32 32 33 34 34 34 35 35 36 36 36 36 37 36 36 36 37 37 38 39 40 40 41 41 39 38 38 39 40 40 41 41 40 40 39 39 38 37 37 36 35 34 33 33 32 33 34 35 36 37 36 34 32 29 27 27 27 27 27 27 28 28 28 28 29 29 29 29 29 30 32 34 36 38 39 41 41 42 41
33 32 32 32 32 32 32 32 33 33 34 34 35 35 36 36 36 36 36 36 35 35 35 35 36 37 38 39 40 40 40 38 37 37 38 38 39 40 40 40 39 38 38 37 37 36 35 34 33 33 33 33 34 35 36 37 36 35 33 30 28 26 26 27 27 28 28 28 28 29 29 29 30 30 30 31 33 34 36 37 38 38 38 38 38 37
33 33 33 33 33 33 33 33 33 34 34 35 35 36 37 37 37 36 36 35 35 34 34 34 35 36 37 38 39 39 39 38 37 36 37 38 38 39 39 39 38 37 37 36 36 35 35 34 33 32 33 34 35 37 37 36 35 33 31 29 28 27 27 28 28 28 28 28 28 28 28 29 29 29 30 32 33 35 36 36 36 36 36 35 35 34
33 33 33 33 33 34 34 34 34 35 36 36 37 37 38 38 37 36 35 35 34 34 34 34 34 35 35 36 37 38 38 37 37 36 36 37 37 38 38 37 36 36 35 35 35 34 34 34 33 33 34 36 37 37 36 34 32 30 28 28 28 28 28 29 29 28 28 28 27 27 27 27 27 28 30 31 33 34 35 35 34 34 33 32 31 30
33 33 33 33 34 34 35 35 35 36 37 38 39 39 39 39 38 37 36 35 34 34 33 34 34 34 34 35 35 36 36 36 36 36 35 35 36 36 36 35 34 34 34 33 33 33 34 34 35 35 37 37 37 36 33 31 28 27 27 27 28 28 29 29 29 28 28 27 26 26 26 26 26 27 29 30 32 33 33 33 32 32 31 30 29 28
33 33 33 34 34 35 35 36 37 37 38 39 40 41 40 40 38 37 36 34 34 33 33 33 34 33 33 33 34 34 34 34 34 34 33 33 33 33 33 33 32 32 32 32 32 33 34 35 36 37 38 37 35 33 31 29 27 26 26 27 28 29 29 29 29 28 27 27 26 25 25 26 26 27 28 30 31 31 31 30 29 28 28 27 27 27
33 34 34 34 35 35 36 37 38 39 40 40 41 41 41 40 38 37 35 34 33 33 33 33 33 33 33 32 32 32 32 32 31 31 31 30 30 30 30 30 30 30 31 31 32 33 34 35 37 37 37 35 32 30 29 28 27 27 26 27 27 28 29 29 28 27 27 26 25 25 25 25 26 26 27 28 28 27 27 26 25 25 25 25 26 27
34 34 34 35 35 36 37 38 39 40 41 41 42 42 41 40 38 36 35 33 32 32 32 32 32 32 31 31 30 30 29 29 29 29 29 29 28 28 28 28 29 29 30 31 32 33 35 36 36 36 35 34 31 30 29 28 27 27 26 26 26 26 27 27 26 25 25 24 24 23 23 24 24 24 25 25 24 23 23 22 22 22 23 24 24 25
34 35 35 36 36 37 38 39 40 41 41 42 42 41 40 39 37 36 34 33 32 32 31 31 31 30 29 28 28 28 27 28 28 28 28 28 28 27 27 27 28 29 30 31 32 33 34 35 35 34 33 32 30 28 27 27 27 26 25 24 23 23 23 23 23 22 22 22 21 21 22 22 22 22 22 22 21 21 21 21 22 22 23 23 23 23
34 35 36 36 37 38 39 40 41 42 42 42 42 40 39 38 36 35 34 33 32 31 30 30 29 28 27 26 26 26 26 27 27 27 27 27 27 27 27 27 28 29 29 30 31 31 32 32 32 31 30 29 27 26 25 25 24 23 22 21 20 20 19 20 20 20 20 20 20 20 20 20 20 20 20 20 20 21 21 22 22 23 23 22 22 21
35 35 36 37 38 39 40 41 42 43 43 42 41 39 37 36 34 33 32 31 30 29 28 28 27 26 24 23 23 24 25 25 25 25 25 26 26 26 26 27 27 28 28 27 27 28 28 28 28 27 25 24 23 22 22 21 20 20 19 19 19 18 18 18 18 18 18 19 19 19 19 19 19 19 19 20 20 21 21 21 21 21 21 20 19 18
35 36 37 38 39 40 41 42 43 43 43 42 40 37 35 34 32 31 30 29 28 27 26 25 24 23 22 21 22 23 24 24 24 24 24 24 24 24 24 25 25 25 25 24 24 24 24 24 23 21 20 19 19 19 19 18 18 18 18 19 19 19 18 17 17 17 17 18 18 18 18 18 19 19 19 20 20 20 20 19 19 18 18 17 17 17
36 37 38 39 40 42 43 43 44 43 42 40 38 35 33 31 30 29 28 27 25 24 24 23 22 21 22 21 22 22 23 23 22 22 22 22 22 22 22 21 21 21 20 20 20 19 19 19 18 17 17 17 17 17 18 18 18 18 18 19 19 19 19 18 18 17 17 17 17 17 17 18 18 18 18 18 18 18 17 17 17 16 16 16 16 17
38 39 40 41 42 43 44 44 44 43 41 38 35 33 31 29 27 26 25 24 23 22 22 21 21 21 22 21 21 21 21 22 22 21 20 19 19 19 18 17 17 16 15 14 14 15 16 17 17 17 17 16 16 16 17 17 18 18 18 18 18 18 18 18 18 17 17 17 17 17 17 17 17 17 17 16 16 16 16 16 16 16 16 17 17 18
39 40 41 43 44 44 45 44 43 41 39 36 33 30 28 26 25 24 23 22 21 21 20 21 21 22 21 21 20 20 20 20 20 19 17 16 15 14 14 13 12 12 11 11 12 13 15 16 17 17 17 16 15 15 15 16 17 17 17 17 16 17 17 17 17 17 17 17 17 16 16 16 15 15 15 15 15 15 16 16 16 17 18 18 19 19
40 41 43 44 45 45 45 44 42 39 37 33 30 27 25 24 23 22 22 21 20 20 20 21 20 20 19 18 18 17 17 17 17 16 14 12 11 10 10 11 11 11 11 11 12 13 14 15 15 15 16 15 15 15 15 16 16 17 17 16 16 16 15 15 15 15 15 15 15 15 14 14 14 14 14 15 15 16 17 17 18 19 19 19 20 20
41 42 44 45 45 45 43 42 40 37 34 30 27 24 22 21 20 20 20 19 19 20 19 19 17 16 14 14 13 13 13 13 12 10 9 8 8 8 9 11 11 11 11 11 11 12 12 12 12 13 13 14 15 16 16 17 17 17 17 16 16 15 15 15 14 14 13 13 13 13 13 14 14 14 15 16 17 17 18 19 19 20 20 20 20 20
42 44 44 44 44 43 41 39 36 33 30 27 24 21 20 19 19 19 19 19 19 18 17 15 14 12 11 10 10 9 9 8 8 7 7 7 7 8 10 11 11 12 11 10 10 10 10 10 10 11 12 12 13 14 16 17 17 17 16 16 15 15 14 14 13 13 12 12 13 13 13 14 15 15 16 17 18 18 19 19 20 20 20 20 20 20
Wind_Direction
289 288 288 287 287 286 284 284 284 284 284 284 283 283 282 282 282 281 281 281 281 281 281 280 279 278 277 276 275 274 274 273 273 272 272 272 271 270 269 268 267 266 265 265 265 264 264 264 264 264 265 266 267 269 270 270 268 265 261 258 255 254 254 254 254 255 255 254 254 253 253 251 249 248 247 247 247 247 247 247 247 247 247 246 245 244
288 288 288 288 287 287 285 284 283 283 284 284 284 283 283 283 282 282 282 281 281 282 282 282 281 280 279 278 277 276 275 274 274 273 272 272 272 272 271 269 267 266 264 264 263 263 263 263 263 263 263 264 265 266 267 269 270 270 269 267 264 260 256 254 253 253 253 254 253 252 251 250 248 247 246 247 247 247 246 246 246 247 247 247 246 245
289 289 288 288 288 288 287 286 284 284 284 284 284 283 283 283 283 283 283 282 282 282 282 283 283 283 282 281 279 278 277 276 276 275 274 274 273 273 272 270 268 266 264 263 262 262 262 263 263 263 263 263 263 264 264 266 267 268 269 270 269 267 263 257 253 251 252 252 252 251 251 250 248 247 246 246 246 246 246 245 246 247 247 247 246 244
289 289 288 288 287 287 287 287 286 285 285 285 284 284 284 284 284 284 284 284 284 283 283 283 284 284 284 283 282 281 279 279 278 277 276 275 274 273 272 271 270 268 265 263 262 262 262 262 263 263 263 263 263 263 263 263 264 265 265 266 266 267 266 262 256 252 250 250 250 250 250 249 248 246 245 245 246 246 246 246 246 246 247 246 245 244
288 288 288 288 288 287 286 286 286 286 286 286 285 285 285 284 284 284 284 284 284 285 284 284 284 283 282 282 281 281 281 280 279 278 277 275 274 273 273 272 271 269 267 265 263 262 262 262 263 263 263 263 263 263 263 263 262 262 262 263 263 264 265 265 261 255 251 249 248 248 248 248 248 246 245 245 245 246 246 246 247 247 247 246 245 244
288 288 288 288 288 287 286 286 286 286 287 286 286 285 285 285 284 284 284 284 284 285 285 285 284 282 281 280 280 280 281 281 280 279 277 275 274 273 272 271 271 270 268 266 265 263 262 262 263 263 264 264 264 264 263 263 262 262 261 261 261 262 263 265 264 260 254 249 246 245 245 246 247 246 245 245 245 245 246 247 247 247 247 247 246 244
290 288 288 288 288 287 286 286 286 287 288 287 286 285 285 284 284 284 284 284 284 285 285 285 284 283 282 281 280 280 281 281 280 279 278 276 274 272 272 271 270 269 268 268 267 265 264 263 263 263 263 264 264 264 263 263 262 261 261 260 260 261 262 263 264 263 259 253 248 245 244 244 244 245 246 245 244 245 245 246 247 248 248 247 245 243
292 290 289 289 288 287 287 286 286 287 288 288 288 286 285 283 283 283 283 283 284 284 285 285 285 284 284 283 282 281 281 281 280 278 277 276 274 273 272 271 270 269 269 269 268 267 266 264 263 262 262 263 263 264 263 263 262 261 261 260 260 260 261 262 263 264 262 259 255 250 246 244 242 243 244 244 244 244 245 246 247 247 247 246 244 241
293 292 291 290 290 290 289 287 286 286 288 289 290 289 288 286 284 283 283 283 284 285 286 286 285 284 283 282 281 281 281 280 279 277 275 275 274 274 273 272 271 270 270 269 269 268 266 264 262 261 261 262 263 263 263 263 263 262 261 260 260 260 260 261 262 263 263 262 261 258 254 248 243 241 241 243 244 244 244 245 246 246 246 245 242 240
292 292 292 291 290 291 291 290 288 287 288 290 291 291 291 290 289 287 286 285 284 284 285 285 285 284 282 280 280 279 279 279 278 277 276 275 274 274 274 273 272 272 271 271 269 268 266 264 262 261 261 262 263 264 264 264 263 263 262 261 260 260 260 260 261 262 263 263 264 264 262 255 247 241 239 241 243 245 245 244 245 245 245 243 241 239
291 291 292 292 291 290 291 291 290 290 290 291 291 291 291 292 292 292 291 287 284 283 283 283 284 283 282 281 279 278 279 278 278 277 276 276 275 275 274 274 273 273 272 272 270 268 265 263 262 261 262 263 264 265 266 265 265 264 263 262 261 260 260 260 260 261 262 263 264 265 265 260 252 243 239 239 242 244 245 245 245 245 244 241 239 238
291 291 291 291 291 291 291 291 291 290 291 291 292 292 291 291 293 294 295 292 289 286 285 284 283 283 282 282 281 280 280 280 279 279 278 277 276 275 274 273 273 272 272 271 270 268 266 264 263 263 264 265 266 267 267 267 266 265 264 262 261 260 260 259 260 260 261 262 263 265 265 262 254 245 239 238 240 242 244 245 245 244 241 239 238 238
291 291 291 291 290 290 291 292 292 292 292 292 293 293 294 293 294 295 296 295 293 291 289 288 286 284 283 282 283 283 283 282 281 280 279 278 277 276 275 274 273 272 271 270 269 268 267 265 265 265 266 267 268 268 268 267 267 266 264 263 261 260 259 259 259 260 260 261 262 263 264 262 255 247 241 240 240 240 241 243 244 242 240 237 237 238
292 292 292 291 290 290 290 292 293 294 294 293 293 293 294 294 295 296 296 296 294 293 292 291 289 286 284 283 284 285 285 284 282 281 280 279 278 277 277 276 275 273 272 270 268 267 267 266 266 266 266 267 268 268 267 267 266 265 264 263 261 260 259 259 259 260 260 260 261 261 262 260 255 249 245 243 241 240 239 240 242 242 241 239 239 240
294 294 294 293 291 291 291 292 293 294 294 293 293 293 294 295 296 297 298 297 296 295 294 293 290 287 284 284 284 285 285 285 284 282 281 280 279 278 278 277 277 275 274 271 269 268 267 266 267 267 267 267 267 267 266 265 264 264 263 262 260 259 259 259 260 261 261 261 261 261 260 259 255 250 247 245 242 239 237 238 240 242 243 242 242 243
295 295 295 294 293 292 292 292 293 294 294 294 294 294 295 296 297 298 299 299 298 297 296 295 293 289 285 282 282 284 286 286 286 284 283 281 279 278 277 277 276 275 274 273 271 270 268 267 267 267 267 266 266 265 264 263 263 262 262 261 260 259 260 261 262 264 264 264 263 261 260 257 254 249 246 243 240 237 236 237 239 241 243 244 244 244
296 296 295 295 294 293 293 293 294 294 294 295 295 296 296 297 298 298 299 299 299 298 297 296 295 293 289 285 283 284 286 286 285 283 281 279 278 278 278 278 277 276 274 274 273 272 271 270 269 268 267 266 265 264 262 261 261 261 260 260 260 260 261 263 265 267 268 267 265 263 259 256 252 247 243 240 237 235 234 235 238 241 244 245 244 243
297 296 296 295 295 295 294 294 294 295 295 296 297 297 297 297 298 298 298 298 298 297 296 295 294 293 292 290 287 285 286 287 286 283 281 280 278 277 278 279 278 277 276 276 275 275 275 273 272 269 267 265 264 263 262 261 260 260 260 259 260 261 262 265 267 270 271 271 268 264 259 253 248 244 240 237 235 234 234 236 238 241 244 245 244 243
296 296 296 296 296 295 295 295 295 296 297 297 298 298 298 298 298 298 298 297 297 296 295 294 293 291 291 289 287 286 287 289 288 287 284 281 278 277 277 278 278 278 277 277 277 277 276 275 273 270 267 264 263 262 261 261 260 260 259 260 260 260 262 263 266 269 271 271 269 264 256 249 244 240 237 235 235 235 236 237 239 241 244 246 246 245
296 296 296 296 296 296 296 296 296 297 298 298 298 298 297 297 297 297 297 297 297 296 295 293 292 291 290 288 287 286 287 288 288 287 285 282 279 277 276 278 278 278 278 277 278 278 277 275 273 270 267 264 262 261 261 261 260 260 260 260 260 260 260 262 263 266 269 270 268 262 253 245 239 236 234 233 234 235 237 239 240 242 244 246 247 247
297 296 295 296 297 297 297 296 296 297 297 297 297 296 295 295 296 296 296 296 295 294 293 292 291 290 290 289 288 287 287 288 289 288 285 282 279 277 277 278 279 279 278 278 278 278 277 276 273 271 268 265 263 262 261 261 261 260 260 260 260 260 260 261 263 265 268 270 267 260 250 243 237 234 232 231 232 234 236 238 240 242 244 245 246 247
297 297 297 297 297 297 297 297 297 297 296 295 295 295 294 294 294 294 294 294 293 292 292 291 291 290 290 289 288 287 287 288 288 287 286 284 281 278 278 279 279 279 279 279 279 279 278 276 275 272 269 267 264 263 262 262 261 260 260 259 259 259 260 261 263 266 268 268 264 257 248 242 238 235 232 231 231 232 234 236 238 240 242 244 245 246
297 298 298 298 296 295 295 295 295 294 293 292 292 292 292 293 294 295 295 294 294 293 292 292 291 290 290 289 288 287 286 286 286 286 286 285 282 280 278 279 279 279 279 279 280 279 278 277 275 274 271 269 267 265 264 263 262 261 260 259 259 259 260 262 264 266 267 264 258 251 245 241 238 235 233 231 231 232 233 235 237 239 241 243 244 245
298 298 297 296 294 293 291 290 290 289 290 291 291 292 293 293 293 293 293 293 293 293 293 293 292 291 289 288 287 286 285 285 285 287 288 287 284 281 279 279 279 279 279 279 279 279 278 277 275 274 272 271 269 268 267 266 264 262 260 259 259 260 261 263 265 265 263 257 250 245 242 240 237 234 232 231 232 233 234 235 237 239 241 243 244 245
297 295 293 291 289 288 288 287 288 289 290 291 292 292 292 292 292 292 292 293 293 294 294 293 292 291 289 288 287 286 285 285 287 288 288 286 283 281 279 280 281 281 280 279 278 278 278 276 275 274 273 272 271 271 269 268 265 263 260 259 260 261 263 265 264 261 255 248 243 242 243 243 240 237 234 233 233 234 235 237 238 240 242 243 244 245
292 289 287 286 286 286 286 287 287 289 289 290 291 292 293 294 294 294 294 294 294 294 294 293 291 289 288 287 287 286 286 286 285 284 283 283 283 282 280 280 282 282 281 279 278 278 277 276 275 274 274 273 273 272 271 269 266 264 262 261 262 264 265 264 260 254 247 242 242 244 247 247 245 242 239 236 235 235 236 237 239 240 242 244 245 246
289 287 286 286 287 287 287 287 288 288 289 290 292 294 296 297 297 297 296 296 295 294 293 290 288 288 287 287 287 287 286 285 284 284 283 284 284 283 281 280 281 281 281 280 278 277 277 276 276 275 275 275 274 273 272 270 267 265 264 265 266 266 264 259 253 247 242 242 244 247 249 249 248 245 242 239 237 236 235 236 238 241 243 245 246 246
290 290 290 290 290 290 290 290 290 290 291 292 294 296 297 298 298 298 297 296 294 293 290 288 287 287 287 287 287 286 285 284 283 283 283 283 283 282 281 280 280 281 281 280 278 277 277 277 277 277 277 277 276 275 273 270 268 268 268 269 268 265 260 252 246 242 242 244 247 249 249 249 247 244 241 238 237 236 235 237 239 242 244 246 246 246
293 293 293 292 292 292 292 292 293 293 294 295 296 297 298 298 297 297 296 295 293 291 289 287 286 286 286 286 285 284 283 282 282 282 282 282 282 281 281 281 281 281 281 280 279 278 277 277 277 277 278 278 278 276 275 272 271 271 272 271 268 262 253 245 241 241 244 246 249 250 250 248 246 242 239 236 234 234 234 236 239 242 244 245 246 245
297 296 295 294 294 294 295 295 296 296 297 298 298 298 298 298 297 296 295 294 293 291 289 287 286 286 286 286 285 284 282 282 281 282 282 282 282 282 281 281 281 281 281 281 280 279 278 277 277 278 278 278 278 278 278 277 277 277 276 272 266 257 247 241 239 241 245 248 250 250 250 247 244 239 235 232 230 230 232 235 238 241 243 245 245 244
301 300 298 297 297 297 298 298 299 300 300 300 300 299 298 297 297 296 295 294 293 291 290 288 287 286 286 285 285 284 283 282 281 282 283 283 283 282 281 281 281 280 280 281 281 281 280 279 278 278 278 278 278 280 281 282 282 280 277 270 261 251 243 239 240 242 246 249 251 251 249 245 240 235 231 228 227 228 231 235 239 242 244 244 244 243
303 301 301 300 300 301 301 302 303 303 303 302 301 300 299 298 297 297 296 295 294 293 291 289 288 286 285 285 284 284 284 283 283 283 284 284 283 282 281 281 281 280 279 279 280 281 281 281 280 280 279 279 280 282 283 284 282 279 272 264 254 245 240 239 242 245 249 252 253 251 248 242 236 231 228 226 227 230 234 238 240 242 243 243 242 241
304 303 303 303 304 304 305 306 306 306 305 304 304 302 301 300 299 298 297 296 295 294 292 290 288 287 286 284 284 284 284 284 284 284 285 284 283 282 281 280 280 280 279 279 279 279 280 280 280 280 280 281 283 285 285 284 280 273 264 254 246 241 240 242 246 249 252 253 252 250 246 240 234 230 228 228 231 234 237 239 240 241 241 241 241 241
307 307 307 307 307 307 308 308 308 308 307 306 306 305 304 302 301 299 298 297 296 294 292 290 289 287 286 285 284 283 283 283 284 284 283 283 282 282 281 280 280 280 280 279 279 278 278 279 279 279 280 282 284 285 284 281 275 266 256 247 242 241 243 247 250 253 253 253 251 247 242 237 232 230 230 231 234 236 237 238 239 239 240 240 241 241
310 309 309 309 309 309 309 309 309 309 309 308 308 307 306 304 303 301 300 298 296 294 292 290 289 287 286 285 284 283 283 283 283 282 282 282 282 281 281 280 280 280 280 279 278 278 278 277 277 277 279 282 284 284 281 276 268 258 250 245 243 244 247 250 252 253 252 250 247 243 239 234 231 230 230 232 233 234 235 236 237 238 239 240 242 243
312 311 312 311 311 311 311 311 311 311 311 310 310 309 308 307 305 303 301 299 297 295 293 291 289 287 286 285 284 284 284 283 282 282 281 281 281 281 281 281 280 280 279 278 277 277 276 276 275 275 277 281 282 280 276 269 261 253 248 246 247 248 250 251 251 250 248 246 242 238 236 233 231 231 231 232 233 233 234 235 236 238 239 240 241 242
313 313 313 313 313 313 313 313 313 313 313 312 312 311 310 309 307 305 303 300 298 296 294 292 290 288 287 286 285 285 284 284 282 282 281 281 280 281 280 280 279 278 277 277 276 275 275 275 274 274 276 278 278 274 267 261 255 251 250 250 251 251 251 250 249 247 244 240 237 234 233 233 233 233 233 233 233 234 235 236 236 237 238 238 238 237
315 314 314 314 314 314 314 314 314 314 314 314 314 313 313 311 309 307 304 301 299 297 295 293 291 290 288 287 287 286 285 284 283 282 281 280 280 280 279 279 278 277 275 275 274 273 273 273 274 275 276 275 273 268 260 254 252 252 252 252 252 251 250 249 247 244 240 235 232 230 231 231 232 232 233 233 233 234 235 235 235 234 234 233 231 229
316 315 315 315 315 315 315 315 315 315 315 315 315 315 314 313 311 308 305 302 300 298 296 294 293 291 290 289 288 287 285 284 284 283 282 281 280 279 278 277 276 275 274 272 272 271 271 271 272 273 273 271 267 261 255 250 249 250 250 250 249 248 247 245 243 239 235 231 228 227 227 228 229 229 231 231 232 232 232 232 230 229 227 225 223 220
317 316 316 316 316 316 316 316 316 316 316 316 316 316 315 313 311 308 305 302 299 297 295 294 293 292 291 291 290 288 287 286 285 284 283 282 280 279 278 276 275 273 272 271 270 269 269 270 270 270 269 266 260 254 250 248 246 246 245 245 244 243 242 240 237 234 231 227 225 224 224 224 225 226 227 227 228 228 227 225 224 222 220 218 217 214
317 317 317 317 317 317 316 316 317 317 317 317 317 316 315 313 311 308 304 301 298 296 295 293 292 292 292 291 291 290 289 288 286 285 283 282 280 278 277 275 274 272 271 270 269 268 268 269 268 267 266 262 256 250 246 244 242 241 239 238 237 237 236 234 231 228 225 223 221 221 220 220 220 220 220 220 219 218 217 217 215 214 212 212 211 211
318 318 318 318 317 317 317 317 317 318 317 317 317 317 315 314 311 308 305 301 299 297 295 294 293 293 293 292 292 291 289 288 286 285 283 282 280 279 277 276 274 272 270 269 268 268 267 266 265 263 260 256 250 245 241 238 237 234 231 228 227 227 227 225 222 219 217 215 213 213 212 212 211 211 211 210 209 208 207 206 206 205 205 205 205 206
319 318 318 318 318 317 317 318 318 318 318 318 318 317 316 314 311 308 305 303 300 299 297 296 295 295 294 293 292 291 289 287 286 284 283 281 280 279 278 276 275 273 270 268 267 266 264 262 260 257 254 249 243 237 233 230 228 225 220 215 212 210 209 210 209 206 204 203 202 202 202 202 201 201 201 201 200 200 200 199 199 200 201 201 202 202
319 319 318 318 318 318 318 318 319 319 319 319 318 318 316 314 312 309 306 304 302 300 299 299 298 297 296 295 295 293 290 288 285 283 281 279 278 277 275 274 273 271 269 265 261 259 257 255 252 248 244 239 231 225 220 217 212 206 201 197 193 190 190 192 193 193 192 191 191 192 192 193 193 194 194 195 195 196 196 197 198 199 200 201 201 200
320 319 319 319 319 319 319 319 319 320 320 320 319 318 316 314 312 310 307 305 304 302 302 301 301 301 301 300 299 296 291 287 284 282 279 277 274 273 271 269 267 264 262 259 255 251 247 243 238 234 228 220 212 206 201 196 190 184 181 179 176 174 173 176 180 183 184 185 185 186 187 188 189 190 191 191 192 193 194 195 196 197 198 199 198 197
321 320 320 320 320 320 320 320 320 321 321 320 320 318 316 314 312 310 308 306 306 305 304 304 305 305 304 302 300 297 292 287 282 279 276 273 270 266 263 260 256 253 250 247 245 241 235 227 219 209 200 194 190 187 183 177 171 169 168 167 165 164 164 167 172 175 178 181 182 183 184 185 187 188 189 190 190 190 191 191 192 192 193 194 195 195
322 322 321 321 321 321 321 321 321 321 321 321 320 318 316 314 312 310 308 308 308 308 307 308 309 309 305 302 297 291 285 280 276 272 269 265 260 255 250 245 242 238 233 230 226 221 215 207 197 187 179 175 174 173 170 166 162 160 160 160 160 160 162 165 169 172 175 178 179 180 181 183 185 186 186 186 186 186 186 187 189 190 192 193 195 196
323 322 322 322 322 322 322 322 322 322 322 321 319 318 317 315 314 313 312 311 311 311 313 314 312 308 302 296 288 279 272 266 261 258 254 249 243 237 229 221 215 209 205 201 199 197 194 188 182 175 170 168 167 166 164 160 156 155 155 156 158 159 161 164 168 171 174 175 176 177 177 179 181 181 181 182 182 183 185 186 189 191 194 196 198 200
323 324 324 324 323 323 323 323 323 322 322 320 319 317 317 316 316 316 315 315 316 317 317 314 307 297 287 278 270 262 254 248 243 239 234 227 219 210 199 190 182 176 174 175 178 181 181 178 175 171 167 165 163 160 157 154 152 152 153 154 156 158 160 163 166 169 170 171 172 172 173 174 176 177 179 180 182 185 188 190 193 195 198 200 202 204
324 325 325 325 324 324 323 323 322 322 321 320 319 318 319 319 319 319 319 320 320 319 314 305 292 278 264 253 244 236 227 221 216 210 202 194 183 173 166 164 163 162 164 166 168 171 172 171 168 166 164 162 159 156 153 150 150 151 152 154 155 157 158 160 161 163 164 166 167 168 170 173 175 178 181 184 186 190 193 195 198 200 202 204 205 207
326 326 326 325 324 323 322 322 322 322 321 321 321 322 324 326 326 325 325 324 321 314 304 289 270 251 235 222 210 198 188 177 165 156 150 149 146 146 149 153 155 157 158 159 160 161 161 161 160 158 156 155 155 154 151 149 149 149 149 150 151 152 153 154 156 158 160 163 167 170 174 177 181 184 187 190 192 195 198 200 202 204 206 207 208 210
Height
2871 2870 2869 2870 2869 2867 2866 2867 2867 2865 2862 2862 2862 2862 2861 2861 2860 2859 2859 2858 2858 2857 2857 2856 2856 2856 2856 2857 2857 2857 2857 2858 2858 2858 2859 2859 2859 2860 2860 2860 2861 2861 2861 2860 2860 2860 2860 2860 2860 2860 2860 2860 2860 2860 2860 2860 2860 2860 2861 2862 2863 2864 2865 2866 2867 2867 2868 2869 2870 2871 2872 2873 2874 2876 2877 2878 2879 2881 2882 2884 2885 2886 2888 2889 2891 2893
2866 2865 2864 2864 2863 2862 2860 2861 2861 2860 2858 2856 2856 2856 2855 2854 2854 2853 2853 2853 2853 2852 2852 2851 2851 2851 2851 2851 2852 2853 2853 2853 2853 2853 2853 2854 2854 2854 2855 2855 2856 2856 2856 2856 2856 2856 2856 2855 2856 2856 2856 2856 2856 2856 2856 2856 2856 2856 2856 2857 2857 2859 2860 2861 2862 2862 2864 2864 2865 2867 2867 2868 2870 2871 2872 2874 2875 2876 2877 2879 2880 2882 2883 2885 2887 2888
2860 2859 2858 2858 2858 2857 2855 2854 2855 2855 2853 2851 2850 2850 2849 2848 2847 2847 2847 2847 2847 2847 2847 2846 2846 2845 2845 2846 2846 2847 2848 2848 2848 2848 2848 2849 2849 2849 2850 2850 2851 2851 2851 2851 2852 2851 2851 2851 2851 2851 2851 2851 2852 2852 2852 2852 2852 2852 2852 2853 2854 2854 2855 2856 2857 2858 2859 2860 2861 2862 2863 2864 2865 2866 2868 2869 2870 2872 2872 2874 2876 2877 2879 2880 2882 2883
2856 2854 2853 2853 2852 2851 2850 2849 2849 2848 2847 2846 2845 2844 2843 2842 2842 2841 2841 2841 2841 2841 2841 2841 2842 2841 2841 2841 2841 2842 2843 2844 2844 2844 2844 2844 2844 2844 2844 2845 2845 2846 2846 2847 2847 2847 2847 2847 2847 2847 2847 2847 2847 2847 2847 2848 2848 2848 2849 2849 2850 2851 2851 2852 2852 2853 2854 2855 2856 2857 2858 2859 2860 2861 2863 2864 2866 2867 2868 2869 2871 2872 2874 2875 2877 2879
2852 2850 2848 2847 2847 2846 2845 2845 2844 2842 2842 2841 2840 2839 2838 2837 2837 2836 2835 2835 2835 2835 2835 2836 2837 2837 2837 2836 2836 2836 2837 2838 2839 2840 2840 2840 2839 2840 2839 2840 2840 2840 2841 2842 2842 2842 2843 2843 2843 2842 2842 2842 2842 2843 2843 2843 2844 2844 2845 2845 2846 2847 2847 2847 2848 2849 2849 2850 2852 2852 2853 2854 2855 2856 2858 2859 2861 2862 2863 2865 2866 2868 2869 2871 2872 2874
2846 2845 2844 2842 2841 2840 2839 2839 2839 2838 2837 2835 2834 2834 2833 2832 2832 2831 2830 2830 2829 2829 2829 2830 2831 2832 2831 2831 2831 2831 2832 2833 2834 2835 2835 2835 2835 2835 2835 2835 2835 2835 2835 2836 2837 2838 2838 2839 2839 2839 2838 2838 2838 2838 2839 2839 2839 2840 2840 2841 2842 2842 2843 2843 2843 2844 2845 2846 2847 2848 2849 2850 2851 2852 2853 2855 2856 2857 2858 2860 2862 2863 2864 2866 2868 2870
2839 2839 2839 2837 2836 2835 2835 2834 2834 2833 2832 2830 2829 2828 2827 2827 2827 2826 2825 2825 2825 2824 2824 2824 2825 2825 2825 2826 2826 2826 2827 2828 2829 2830 2829 2830 2830 2831 2831 2830 2830 2830 2831 2831 2832 2833 2833 2834 2834 2835 2834 2834 2834 2834 2834 2834 2835 2835 2836 2837 2837 2838 2838 2839 2839 2840 2841 2841 2842 2843 2844 2845 2847 2848 2849 2850 2851 2852 2854 2855 2857 2858 2860 2862 2864 2866
2833 2833 2833 2832 2831 2829 2829 2829 2829 2829 2827 2826 2824 2822 2822 2821 2821 2821 2820 2820 2820 2820 2820 2819 2819 2820 2820 2821 2821 2821 2822 2822 2823 2823 2824 2824 2825 2826 2826 2826 2826 2827 2827 2827 2828 2828 2829 2829 2830 2830 2830 2830 2830 2829 2830 2830 2830 2831 2831 2832 2832 2833 2834 2834 2835 2835 2836 2837 2837 2838 2839 2840 2842 2843 2845 2846 2847 2848 2849 2851 2852 2854 2856 2857 2860 2862
2830 2828 2827 2827 2827 2825 2823 2822 2823 2823 2823 2821 2819 2818 2817 2815 2815 2815 2815 2815 2816 2816 2815 2815 2814 2814 2815 2816 2817 2817 2816 2817 2817 2817 2818 2819 2820 2820 2821 2821 2822 2822 2823 2824 2824 2824 2825 2825 2825 2825 2825 2825 2825 2825 2825 2825 2826 2826 2827 2827 2828 2828 2829 2830 2830 2831 2831 2832 2833 2833 2834 2835 2836 2838 2840 2842 2843 2845 2845 2846 2848 2850 2852 2854 2856 2858
2826 2824 2823 2822 2822 2821 2819 2817 2817 2818 2818 2817 2815 2814 2813 2812 2810 2810 2809 2809 2810 2811 2811 2810 2809 2809 2809 2810 2811 2811 2811 2811 2812 2812 2813 2813 2814 2815 2816 2816 2817 2817 2818 2819 2820 2820 2821 2821 2821 2821 2821 2821 2821 2821 2821 2821 2821 2822 2822 2822 2823 2824 2825 2825 2826 2826 2827 2827 2828 2829 2830 2830 2831 2832 2835 2837 2839 2841 2842 2842 2843 2845 2847 2850 2852 2854
2820 2820 2819 2817 2816 2816 2816 2814 2812 2812 2813 2812 2811 2810 2810 2809 2808 2806 2805 2804 2804 2805 2806 2806 2805 2805 2804 2804 2805 2805 2806 2806 2806 2807 2808 2808 2809 2810 2811 2811 2812 2812 2813 2814 2815 2816 2816 2817 2817 2817 2817 2817 2817 2817 2817 2817 2817 2817 2817 2818 2819 2819 2820 2821 2821 2822 2822 2823 2824 2825 2825 2826 2826 2827 2830 2832 2834 2837 2838 2839 2840 2842 2844 2846 2848 2850
2816 2815 2814 2813 2812 2811 2810 2810 2809 2808 2808 2808 2807 2806 2805 2805 2805 2803 2801 2799 2799 2799 2800 2800 2800 2800 2800 2800 2800 2800 2801 2801 2801 2801 2802 2802 2804 2805 2805 2806 2807 2807 2808 2809 2810 2811 2812 2812 2813 2813 2813 2813 2813 2813 2813 2813 2813 2813 2813 2814 2814 2815 2816 2816 2817 2817 2817 2818 2819 2820 2821 2821 2822 2823 2824 2827 2830 2832 2833 2835 2837 2839 2841 2842 2843 2845
2812 2811 2810 2808 2808 2807 2806 2805 2805 2804 2804 2804 2803 2802 2801 2801 2801 2800 2798 2796 2795 2795 2795 2794 2794 2794 2795 2796 2796 2796 2796 2796 2796 2796 2796 2797 2798 2799 2800 2800 2801 2802 2803 2804 2805 2806 2807 2808 2808 2809 2809 2809 2809 2809 2809 2809 2809 2809 2809 2809 2810 2810 2811 2812 2812 2812 2813 2813 2814 2815 2816 2817 2817 2818 2820 2822 2825 2827 2829 2831 2833 2834 2837 2838 2839 2839
2808 2807 2806 2804 2803 2803 2803 2802 2801 2800 2800 2800 2799 2798 2797 2797 2797 2796 2794 2792 2792 2792 2791 2790 2789 2789 2790 2791 2792 2792 2792 2791 2791 2791 2791 2792 2793 2794 2794 2794 2795 2797 2798 2799 2800 2801 2803 2804 2804 2804 2805 2805 2805 2805 2805 2805 2805 2805 2805 2805 2805 2806 2806 2807 2807 2807 2808 2808 2809 2810 2811 2812 2812 2814 2815 2817 2819 2822 2824 2827 2829 2830 2832 2833 2834 2835
2804 2803 2802 2800 2799 2799 2799 2799 2798 2797 2796 2796 2796 2795 2794 2793 2793 2792 2791 2789 2788 2787 2787 2786 2784 2784 2785 2787 2788 2788 2788 2787 2787 2786 2786 2787 2788 2789 2790 2790 2790 2791 2792 2793 2794 2796 2799 2799 2799 2800 2800 2801 2801 2801 2801 2801 2801 2801 2800 2801 2801 2801 2802 2802 2802 2803 2803 2803 2804 2805 2806 2807 2808 2809 2811 2812 2814 2817 2819 2822 2824 2826 2828 2829 2829 2830
2801 2800 2797 2796 2795 2795 2795 2795 2795 2793 2792 2792 2792 2792 2791 2790 2789 2789 2788 2786 2784 2784 2783 2781 2779 2778 2779 2782 2784 2785 2784 2783 2783 2783 2783 2782 2783 2785 2787 2787 2786 2786 2787 2788 2789 2791 2794 2795 2795 2796 2796 2797 2797 2797 2797 2797 2796 2796 2796 2797 2797 2797 2797 2798 2798 2798 2798 2798 2799 2799 2800 2802 2803 2804 2806 2808 2810 2812 2814 2817 2820 2822 2824 2825 2826 2827
2797 2796 2794 2793 2792 2791 2791 2792 2791 2790 2789 2789 2789 2789 2788 2787 2786 2786 2785 2783 2782 2781 2779 2778 2777 2774 2773 2774 2777 2780 2781 2781 2780 2780 2779 2778 2778 2779 2781 2782 2782 2782 2782 2783 2785 2787 2789 2790 2791 2791 2792 2792 2792 2792 2792 2792 2792 2792 2792 2792 2792 2793 2793 2793 2793 2793 2793 2793 2794 2794 2795 2796 2797 2799 2802 2803 2805 2807 2809 2812 2815 2817 2820 2821 2823 2824
2793 2792 2791 2790 2789 2788 2787 2788 2787 2787 2787 2786 2786 2785 2785 2784 2783 2782 2781 2781 2779 2778 2776 2775 2774 2772 2771 2770 2772 2775 2777 2777 2775 2774 2773 2773 2774 2775 2777 2776 2776 2776 2777 2778 2780 2782 2784 2785 2786 2787 2787 2787 2787 2787 2787 2787 2788 2788 2788 2788 2788 2789 2789 2789 2789 2789 2789 2789 2789 2789 2790 2791 2792 2794 2797 2799 2801 2802 2805 2808 2810 2813 2815 2817 2819 2821
2789 2789 2788 2787 2786 2785 2785 2785 2785 2784 2784 2783 2783 2782 2781 2780 2779 2779 2777 2777 2776 2775 2773 2772 2771 2769 2769 2767 2768 2770 2773 2772 2770 2769 2769 2768 2769 2770 2772 2772 2771 2771 2772 2774 2776 2778 2780 2780 2781 2782 2782 2782 2783 2783 2783 2783 2783 2783 2784 2784 2784 2784 2785 2785 2785 2785 2785 2785 2785 2786 2786 2787 2788 2790 2792 2794 2796 2798 2801 2803 2806 2808 2811 2813 2815 2816
2786 2786 2785 2785 2783 2782 2782 2782 2782 2782 2782 2781 2780 2779 2777 2776 2776 2775 2774 2773 2772 2771 2770 2769 2767 2766 2766 2764 2765 2766 2769 2768 2767 2765 2764 2763 2763 2765 2767 2768 2767 2767 2767 2769 2772 2774 2775 2775 2776 2777 2777 2778 2778 2779 2779 2779 2779 2779 2779 2780 2780 2780 2780 2780 2781 2781 2781 2781 2781 2781 2782 2782 2784 2786 2788 2790 2792 2795 2797 2800 2802 2804 2806 2808 2810 2812
2782 2782 2782 2782 2782 2781 2779 2779 2779 2780 2779 2779 2777 2776 2774 2773 2772 2772 2771 2770 2770 2768 2767 2766 2764 2762 2762 2762 2761 2763 2765 2765 2763 2761 2760 2758 2758 2760 2763 2764 2763 2762 2763 2764 2767 2769 2770 2770 2771 2772 2773 2773 2774 2774 2775 2775 2775 2775 2775 2775 2775 2776 2776 2776 2776 2777 2777 2777 2777 2777 2777 2778 2780 2782 2783 2786 2788 2791 2794 2796 2798 2800 2802 2805 2807 2809
2781 2779 2779 2780 2780 2779 2777 2777 2777 2777 2777 2777 2776 2774 2773 2772 2770 2769 2767 2767 2766 2764 2763 2762 2760 2759 2759 2758 2758 2759 2762 2761 2760 2758 2757 2755 2754 2755 2759 2760 2759 2758 2758 2760 2762 2764 2765 2765 2766 2767 2768 2769 2769 2770 2770 2771 2771 2771 2771 2771 2771 2771 2772 2772 2772 2773 2773 2773 2773 2773 2774 2775 2776 2778 2780 2782 2785 2787 2790 2792 2794 2796 2798 2800 2802 2804
2779 2778 2777 2777 2778 2778 2777 2776 2775 2775 2775 2775 2774 2772 2770 2769 2767 2765 2763 2762 2761 2760 2758 2757 2756 2756 2755 2755 2755 2756 2757 2757 2757 2756 2754 2751 2750 2751 2755 2756 2755 2754 2755 2757 2758 2759 2760 2761 2762 2763 2763 2764 2764 2765 2766 2766 2767 2767 2767 2767 2767 2767 2768 2768 2769 2769 2769 2769 2770 2770 2771 2772 2773 2775 2777 2779 2781 2783 2785 2787 2789 2792 2794 2796 2798 2800
2777 2777 2776 2776 2776 2776 2775 2774 2773 2772 2771 2770 2769 2768 2767 2766 2764 2762 2760 2759 2758 2756 2755 2754 2752 2751 2751 2751 2751 2752 2752 2754 2754 2753 2751 2748 2747 2748 2751 2752 2752 2751 2751 2753 2754 2754 2755 2756 2757 2758 2759 2759 2760 2761 2761 2762 2762 2762 2763 2763 2763 2764 2764 2764 2765 2765 2766 2766 2767 2767 2768 2769 2770 2772 2773 2775 2777 2779 2781 2783 2785 2787 2790 2792 2794 2796
2777 2776 2775 2774 2773 2772 2772 2770 2769 2768 2767 2767 2766 2765 2763 2762 2761 2759 2757 2756 2755 2754 2752 2751 2749 2747 2746 2747 2747 2747 2749 2750 2751 2751 2750 2747 2745 2745 2747 2748 2747 2747 2747 2748 2749 2749 2750 2751 2752 2754 2754 2755 2756 2756 2757 2757 2757 2758 2758 2759 2759 2760 2760 2761 2761 2762 2762 2762 2763 2764 2765 2766 2767 2768 2770 2772 2773 2776 2778 2780 2782 2784 2786 2788 2791 2793
2775 2774 2772 2771 2770 2769 2768 2767 2767 2766 2766 2764 2763 2761 2760 2758 2757 2755 2754 2753 2752 2751 2749 2747 2746 2744 2743 2743 2743 2744 2745 2747 2748 2748 2747 2744 2741 2740 2742 2744 2744 2743 2743 2744 2745 2745 2746 2747 2748 2749 2750 2751 2751 2752 2752 2752 2753 2754 2754 2755 2756 2756 2757 2757 2757 2758 2758 2759 2760 2761 2762 2762 2764 2765 2767 2768 2770 2772 2775 2777 2779 2781 2783 2785 2787 2789
2771 2769 2768 2767 2766 2765 2765 2764 2764 2763 2763 2762 2761 2759 2757 2755 2753 2752 2750 2750 2749 2748 2747 2745 2742 2740 2739 2739 2739 2740 2742 2742 2742 2742 2742 2740 2738 2737 2738 2740 2741 2740 2739 2740 2740 2741 2742 2743 2744 2745 2746 2747 2747 2747 2748 2748 2749 2750 2750 2751 2752 2752 2753 2753 2754 2755 2755 2756 2757 2757 2758 2759 2760 2762 2763 2765 2767 2769 2771 2773 2775 2777 2780 2782 2784 2786
2767 2766 2765 2764 2763 2762 2762 2761 2761 2760 2760 2759 2758 2756 2754 2753 2751 2749 2747 2747 2746 2746 2744 2741 2739 2737 2735 2735 2736 2737 2738 2738 2739 2739 2739 2737 2735 2734 2735 2736 2737 2737 2736 2736 2736 2737 2738 2739 2740 2741 2742 2742 2743 2743 2743 2744 2745 2746 2747 2747 2748 2748 2749 2750 2751 2752 2752 2753 2754 2754 2755 2756 2757 2759 2761 2762 2764 2766 2768 2770 2772 2774 2777 2778 2780 2782
2764 2763 2762 2761 2760 2759 2758 2758 2757 2757 2756 2756 2754 2753 2752 2750 2748 2746 2744 2743 2743 2741 2739 2737 2736 2734 2733 2732 2732 2732 2733 2735 2736 2736 2735 2734 2732 2731 2732 2733 2733 2733 2733 2732 2732 2732 2734 2735 2737 2737 2738 2739 2739 2739 2739 2740 2741 2741 2742 2743 2744 2745 2746 2747 2747 2748 2749 2750 2751 2752 2752 2754 2755 2757 2758 2760 2762 2763 2765 2767 2769 2771 2773 2775 2777 2779
2760 2760 2758 2758 2757 2756 2755 2754 2754 2753 2753 2752 2751 2750 2748 2747 2745 2743 2742 2741 2739 2737 2735 2733 2732 2731 2730 2729 2728 2727 2729 2731 2732 2732 2731 2730 2729 2728 2729 2729 2729 2730 2730 2729 2728 2728 2729 2731 2733 2734 2735 2736 2736 2736 2736 2736 2737 2737 2738 2739 2740 2741 2742 2743 2744 2745 2746 2747 2748 2749 2750 2751 2752 2754 2755 2757 2759 2760 2762 2764 2766 2767 2770 2772 2774 2777
2757 2756 2755 2754 2753 2753 2752 2751 2751 2750 2749 2748 2747 2746 2745 2743 2742 2740 2739 2738 2736 2734 2732 2730 2728 2728 2727 2726 2724 2723 2724 2727 2728 2729 2728 2727 2725 2725 2725 2725 2725 2726 2727 2727 2726 2725 2726 2727 2729 2730 2731 2732 2732 2732 2732 2732 2733 2733 2734 2735 2736 2737 2738 2739 2741 2742 2743 2744 2745 2746 2747 2748 2749 2751 2752 2754 2756 2757 2759 2761 2763 2765 2767 2770 2772 2774
2754 2753 2752 2751 2750 2749 2748 2748 2747 2746 2745 2744 2743 2742 2741 2740 2738 2737 2736 2734 2732 2730 2728 2726 2725 2724 2724 2723 2722 2720 2720 2722 2724 2725 2724 2723 2722 2721 2722 2722 2722 2722 2724 2724 2724 2723 2723 2724 2725 2726 2727 2728 2728 2729 2729 2729 2730 2731 2731 2732 2732 2733 2735 2736 2737 2738 2739 2741 2742 2743 2744 2745 2747 2748 2749 2751 2753 2754 2756 2758 2760 2763 2765 2767 2769 2772
2751 2750 2749 2748 2747 2746 2745 2744 2743 2742 2742 2741 2739 2738 2737 2736 2735 2733 2732 2730 2728 2727 2725 2723 2722 2721 2720 2720 2719 2718 2718 2719 2721 2721 2721 2720 2718 2717 2718 2718 2719 2719 2720 2720 2721 2721 2721 2721 2722 2723 2723 2724 2725 2725 2726 2727 2727 2728 2728 2729 2729 2730 2731 2732 2734 2735 2736 2737 2738 2740 2741 2742 2743 2745 2747 2748 2750 2752 2754 2756 2758 2761 2763 2765 2767 2769
2748 2747 2746 2745 2744 2743 2742 2742 2741 2739 2738 2737 2736 2734 2733 2732 2730 2729 2728 2727 2725 2723 2722 2721 2719 2717 2717 2716 2715 2715 2715 2717 2718 2718 2717 2716 2715 2714 2714 2715 2716 2716 2717 2717 2717 2717 2718 2718 2719 2720 2720 2721 2722 2722 2723 2724 2724 2725 2726 2726 2727 2727 2728 2729 2730 2732 2732 2733 2735 2736 2737 2739 2741 2742 2744 2746 2748 2750 2752 2754 2757 2759 2761 2763 2765 2767
2745 2744 2743 2742 2741 2740 2739 2738 2737 2736 2735 2733 2732 2731 2729 2728 2727 2725 2724 2722 2721 2720 2718 2717 2716 2715 2713 2712 2712 2711 2712 2713 2714 2715 2714 2713 2712 2711 2711 2711 2712 2713 2713 2713 2714 2714 2715 2715 2716 2717 2717 2718 2719 2720 2720 2721 2722 2722 2722 2723 2724 2725 2726 2727 2728 2728 2729 2730 2732 2733 2734 2736 2737 2740 2742 2744 2746 2748 2750 2752 2754 2757 2759 2761 2762 2764
2743 2742 2741 2740 2738 2737 2736 2735 2734 2733 2732 2730 2729 2727 2726 2724 2722 2721 2720 2718 2717 2716 2715 2714 2713 2712 2711 2709 2708 2708 2708 2709 2710 2711 2711 2710 2709 2708 2707 2708 2709 2710 2710 2710 2711 2711 2712 2712 2713 2714 2714 2715 2717 2717 2718 2718 2719 2719 2720 2720 2721 2722 2723 2724 2725 2726 2727 2728 2729 2731 2732 2734 2736 2737 2740 2742 2744 2746 2748 2750 2752 2754 2756 2758 2759 2761
2741 2739 2738 2737 2736 2734 2733 2732 2731 2730 2728 2726 2725 2723 2722 2720 2718 2717 2716 2714 2713 2712 2711 2710 2709 2708 2707 2707 2706 2705 2705 2705 2706 2707 2707 2707 2706 2705 2705 2705 2706 2707 2707 2707 2707 2708 2708 2709 2709 2711 2712 2713 2714 2715 2716 2716 2716 2717 2717 2717 2718 2719 2721 2722 2722 2723 2725 2726 2727 2729 2731 2732 2734 2736 2738 2741 2743 2744 2746 2748 2750 2752 2754 2755 2757 2758
2738 2737 2736 2735 2733 2732 2730 2729 2728 2726 2725 2723 2721 2720 2718 2716 2715 2713 2712 2710 2709 2708 2707 2706 2705 2705 2704 2703 2702 2702 2702 2702 2702 2702 2703 2703 2703 2702 2702 2702 2702 2703 2704 2704 2705 2705 2706 2706 2707 2707 2709 2710 2711 2712 2712 2713 2713 2713 2714 2715 2716 2717 2718 2719 2720 2721 2722 2724 2726 2727 2729 2731 2733 2735 2737 2739 2740 2742 2743 2745 2747 2749 2751 2752 2754 2756
2736 2735 2733 2732 2731 2729 2727 2726 2725 2723 2722 2720 2718 2716 2714 2712 2711 2709 2708 2707 2705 2704 2703 2702 2702 2701 2701 2700 2700 2699 2698 2698 2698 2698 2699 2699 2699 2699 2699 2699 2699 2700 2701 2701 2702 2702 2703 2703 2704 2705 2706 2707 2708 2708 2709 2709 2710 2711 2712 2712 2713 2714 2715 2716 2717 2719 2720 2722 2724 2725 2727 2729 2731 2732 2734 2736 2737 2739 2741 2743 2745 2747 2748 2750 2752 2753
2733 2732 2731 2730 2728 2727 2725 2723 2722 2720 2718 2717 2715 2713 2711 2709 2707 2706 2704 2703 2702 2701 2700 2699 2698 2698 2697 2697 2697 2696 2695 2695 2695 2695 2695 2696 2696 2696 2696 2696 2696 2697 2698 2698 2699 2700 2700 2700 2701 2702 2702 2703 2704 2705 2706 2706 2707 2708 2709 2709 2710 2711 2713 2714 2716 2717 2718 2720 2722 2723 2725 2727 2728 2730 2732 2733 2735 2737 2739 2741 2743 2745 2746 2748 2750 2752
2731 2730 2728 2727 2726 2724 2723 2721 2719 2717 2715 2713 2712 2709 2707 2705 2703 2702 2701 2700 2699 2698 2697 2696 2695 2695 2694 2694 2693 2693 2692 2692 2692 2692 2692 2692 2692 2693 2693 2693 2694 2694 2695 2696 2696 2697 2697 2697 2697 2698 2699 2700 2701 2702 2702 2703 2704 2705 2706 2707 2708 2709 2711 2712 2714 2715 2717 2718 2720 2722 2723 2725 2727 2728 2730 2732 2734 2736 2737 2739 2742 2743 2745 2747 2749 2751
2729 2727 2726 2725 2723 2722 2720 2718 2716 2714 2712 2711 2708 2706 2704 2702 2700 2698 2697 2696 2695 2694 2694 2693 2692 2692 2691 2691 2690 2690 2690 2689 2689 2689 2689 2689 2690 2690 2690 2691 2691 2692 2692 2693 2693 2693 2693 2694 2694 2695 2695 2696 2697 2698 2699 2700 2701 2702 2703 2705 2706 2708 2710 2711 2712 2714 2716 2717 2719 2720 2722 2723 2725 2727 2729 2731 2733 2735 2737 2738 2740 2742 2744 2746 2748 2750
2727 2725 2724 2722 2721 2719 2717 2715 2713 2712 2709 2707 2705 2703 2701 2699 2697 2695 2693 2692 2692 2691 2690 2689 2689 2688 2688 2688 2688 2687 2687 2687 2687 2687 2687 2687 2687 2687 2687 2688 2688 2689 2689 2690 2690 2690 2691 2691 2692 2692 2693 2694 2695 2696 2697 2698 2699 2700 2702 2703 2705 2706 2708 2710 2711 2713 2714 2716 2717 2719 2721 2722 2724 2726 2728 2730 2732 2734 2736 2737 2739 2741 2743 2744 2746 2748
2725 2723 2722 2720 2718 2716 2714 2713 2711 2708 2707 2704 2702 2700 2698 2696 2694 2692 2691 2689 2688 2688 2687 2687 2686 2686 2686 2685 2685 2685 2684 2684 2684 2684 2684 2684 2684 2685 2685 2685 2686 2686 2687 2687 2687 2688 2688 2689 2689 2690 2691 2692 2693 2694 2695 2696 2697 2699 2701 2702 2703 2705 2707 2708 2710 2712 2713 2715 2717 2719 2720 2722 2724 2726 2727 2729 2731 2733 2735 2736 2738 2740 2742 2743 2745 2746
2723 2721 2719 2718 2716 2714 2712 2710 2707 2705 2703 2701 2699 2697 2695 2693 2691 2689 2688 2687 2686 2685 2684 2684 2683 2683 2683 2683 2682 2682 2682 2682 2682 2682 2682 2682 2682 2682 2682 2683 2683 2684 2684 2685 2685 2686 2686 2687 2688 2689 2690 2691 2692 2693 2694 2695 2697 2698 2699 2701 2702 2704 2706 2708 2710 2712 2714 2715 2717 2718 2720 2722 2723 2725 2727 2729 2731 2732 2734 2735 2737 2739 2740 2742 2743 2745
2721 2719 2717 2715 2713 2711 2709 2707 2704 2702 2700 2698 2696 2694 2692 2690 2688 2687 2686 2684 2683 2683 2682 2682 2682 2681 2681 2681 2681 2680 2680 2680 2679 2680 2680 2680 2680 2680 2681 2681 2681 2682 2682 2683 2683 2684 2685 2686 2687 2688 2690 2691 2692 2693 2694 2695 2696 2697 2699 2701 2702 2704 2706 2708 2710 2712 2714 2715 2717 2718 2720 2722 2723 2725 2727 2728 2730 2731 2733 2734 2736 2737 2739 2741 2742 2744
2718 2716 2714 2712 2710 2708 2706 2703 2701 2699 2696 2694 2693 2691 2689 2687 2686 2684 2683 2682 2682 2681 2680 2680 2680 2679 2679 2679 2679 2679 2678 2678 2678 2678 2678 2678 2678 2679 2679 2679 2680 2681 2681 2682 2683 2684 2685 2686 2687 2688 2690 2691 2692 2693 2694 2695 2696 2697 2699 2701 2702 2704 2706 2707 2710 2712 2713 2715 2717 2718 2720 2722 2723 2725 2726 2728 2729 2731 2732 2733 2735 2737 2738 2740 2742 2743
2716 2714 2712 2710 2707 2705 2702 2700 2697 2695 2693 2692 2690 2688 2687 2685 2684 2682 2681 2680 2680 2679 2679 2678 2678 2678 2678 2677 2677 2677 2677 2677 2677 2677 2677 2677 2677 2677 2678 2678 2679 2680 2681 2682 2683 2685 2686 2687 2687 2688 2689 2691 2692 2693 2694 2695 2696 2698 2699 2701 2703 2704 2706 2708 2710 2712 2713 2715 2717 2718 2719 2721 2722 2724 2725 2727 2728 2730 2732 2733 2735 2736 2738 2739 2741 2742
2714 2712 2709 2707 2704 2701 2699 2697 2694 2692 2691 2689 2687 2686 2685 2683 2682 2681 2680 2679 2678 2678 2678 2677 2677 2677 2677 2677 2676 2676 2676 2676 2676 2676 2676 2676 2677 2677 2677 2678 2679 2680 2681 2682 2684 2685 2686 2687 2688 2689 2690 2691 2692 2693 2694 2695 2696 2698 2700 2702 2703 2705 2707 2709 2710 2712 2713 2715 2716 2717 2718 2720 2722 2723 2725 2726 2728 2730 2731 2733 2735 2736 2737 2739 2740 2742
2712 2709 2707 2704 2701 2698 2696 2693 2692 2690 2688 2687 2685 2684 2682 2682 2680 2679 2678 2678 2677 2677 2677 2677 2677 2677 2677 2676 2676 2676 2676 2676 2676 2676 2676 2676 2676 2677 2677 2678 2679 2681 2682 2683 2684 2686 2687 2688 2689 2690 2691 2692 2692 2693 2694 2695 2697 2698 2700 2702 2704 2705 2707 2708 2710 2711 2712 2714 2715 2717 2718 2720 2721 2723 2724 2726 2728 2729 2731 2732 2734 2735 2737 2738 2739 2741
2709 2707 2704 2701 2699 2696 2693 2691 2689 2688 2686 2685 2683 2682 2681 2680 2679 2678 2677 2677 2677 2676 2676 2677 2677 2676 2676 2676 2676 2676 2675 2675 2675 2675 2676 2676 2677 2677 2678 2679 2680 2681 2682 2684 2685 2686 2687 2688 2689 2690 2691 2692 2693 2694 2695 2696 2697 2699 2701 2702 2704 2705 2706 2708 2709 2711 2712 2714 2715 2717 2718 2720 2721 2723 2724 2726 2727 2729 2730 2732 2733 2734 2736 2737 2738 2739